Location: Pl�tzky
(52.0521°N, 11.8020°E)
Time: 09:04:36
(UTC+00:00)

USA 229 - Pass Details

Date: 25 February 2020
Orbit: 986 x 1226 km, 63.4° (Epoch: 26 March)

Event Time Altitude Azimuth Distance (km) Brightness Sun altitude
Rises 18:47:23 0° 250° (WSW) 3,744 7.6 -19.6°
Reaches altitude 10° 18:50:02 10° 255° (WSW) 2,820 6.8 -20.0°
Maximum altitude 18:56:29 50° 331° (NNW) 1,336 4.4 -21.0°
Enters shadow 19:02:51 12° 44° (NE) 2,822 5.6 -21.9°
